Location: Gensac
(43.2177°N, 1.1313°E)
Time: 17:51:42
(UTC+00:00)

Daily predictions for brighter satellites

Satellite Brightness Start Highest point End
(mag) Time Altitude Azimuth Time Altitude Azimuth Time Altitude Azimuth
Cosmos 1025 Rocket 4.5 17:29:48 10° NNW 17:33:52 43° W 17:37:53 10° SSW
deb Chang Zheng 4 3.6 17:30:37 10° SSE 17:34:44 56° ENE 17:38:51 10° N
ARGOS 3.8 17:30:58 10° SE 17:35:43 33° ENE 17:40:31 10° N
Genesis I 4.3 17:32:12 10° NNW 17:35:50 29° NE 17:39:26 10° ESE
Cosmos 405 3.0 17:34:41 10° S 17:38:08 86° WNW 17:41:35 10° N
Cosmos 1697 Rocket 2.8 17:34:53 10° S 17:40:27 62° ESE 17:46:02 10° NNE
Cosmos 1125 Rocket 4.0 17:35:48 10° S 17:40:41 40° ESE 17:45:35 10° NE
SME Rocket 4.4 17:39:24 10° N 17:43:12 47° WNW 17:48:07 10° SW
Cosmos 1908 4.2 17:41:16 10° SSE 17:44:33 27° E 17:47:50 10° NNE
Cosmos 1607 4.4 17:41:39 10° NNW 17:47:36 41° NE 17:53:24 10° ESE
Cosmos 1356 3.3 17:45:28 10° N 17:48:51 60° E 17:52:11 10° SSE
Meteor 1-24 Rocket 4.4 17:44:09 10° NNW 17:49:47 64° W 17:55:36 10° S
Cosmos 2227 Rocket 2.3 17:44:50 10° NNW 17:50:33 86° WSW 17:56:12 10° SSE
Iridium 4 Rocket 4.4 17:49:23 10° NNE 17:52:40 20° E 17:56:06 10° SE
Cosmos 494 Rocket 4.1 17:48:28 10° NNW 17:53:37 54° ENE 17:58:40 10° SE
Landsat 5 3.7 17:50:12 10° NNE 17:54:28 56° E 17:58:50 10° S
MOS 1-B Rocket 4.3 17:49:48 10° NNE 17:56:37 52° E 18:02:29 10° S
CZ-2C R/B 2.9 17:51:20 10° NNE 17:56:51 53° E 18:02:15 10° S
Timation 2 Rocket 4.2 17:50:30 10° NNW 17:57:26 79° ENE 18:04:09 10° SSE
Cosmos 1726 3.9 17:54:07 10° SW 17:57:27 34° WNW 18:00:48 10° N
SKYMED 2 3.5 17:53:07 10° NNE 17:57:27 64° ESE 18:01:45 10° S
Cosmos 1470 4.0 17:55:35 10° SSW 17:59:24 46° WNW 18:03:15 10° N
Okean O Rocket 1.5 17:57:09 10° SSE 18:01:27 69° ENE 18:05:46 10° N
Cosmos 2084 Rocket 4.5 17:58:10 10° WSW 18:01:50 40° NW 18:05:33 10° NNE
Cosmos 1758 3.6 18:02:16 10° SSW 18:06:15 71° W 18:10:14 10° N
CZ-4 R/B 2.1 18:04:14 10° SE 18:07:44 32° ENE 18:11:20 10° N
YAOGAN 1 3.2 18:04:35 10° SE 18:08:30 35° ENE 18:12:27 10° N
Cosmos 1703 3.8 18:05:14 10° N 18:08:54 37° ENE 18:12:32 10° SE
SL-16 R/B 3.7 18:06:23 10° SE 18:08:50 14° ESE 18:08:50 14° ESE
Okean-O 3.8 18:07:42 14° ESE 18:10:19 22° ENE 18:13:43 10° NNE
Cosmos 1455 Rocket 3.5 18:08:44 10° SSE 18:12:48 38° E 18:16:54 10° NNE
Cosmos 2082 3.6 18:10:05 10° NNW 18:15:44 76° ENE 18:21:21 10° SSE
Spot 2 4.0 18:12:45 10° SSE 18:16:42 57° ENE 18:20:49 10° N
Cosmos 1953 2.3 18:12:56 10° S 18:16:54 59° E 18:20:54 10° NNE
Tiangong 3.6 18:18:12 10° SSE 18:18:34 10° SSE 18:18:36 10° SSE
Cosmos 2150 Rocket 4.2 18:14:46 10° SSW 18:20:13 81° WNW 18:25:39 10° NNE
H-2A R/B 2.6 18:16:57 10° NNE 18:20:40 32° E 18:24:22 10° SSE
Cosmos 1727 Rocket 4.2 18:15:15 10° N 18:21:29 77° W 18:27:38 10° S
Okean 1-7 Rocket 4.4 18:18:25 10° NNE 18:22:16 29° ENE 18:24:34 19° ESE
Meteor 1-21 Rocket 4.2 18:18:39 10° N 18:24:30 73° ENE 18:30:24 10° SSE
Cosmos 1544 Rocket 4.3 18:22:09 10° SSE 18:26:04 31° E 18:30:00 10° NNE
H-2A R/B 3.0 18:25:25 10° S 18:30:35 53° W 18:35:54 10° NNW
ATLAS 3B R/B 3.3 18:27:14 10° SW 18:33:37 54° NW 18:40:20 10° NNE
Cosmos 1300 3.7 18:30:49 10° SSE 18:38:01 - NNE 18:33:12 27° ESE
Cosmos 405 Rocket 2.7 18:34:39 10° N 18:38:34 64° E 18:42:30 10° SSE
CZ-4B R/B 4.4 18:34:20 10° S 18:39:42 46° W 18:45:09 10° NNW
ATLAS 5 CENTAUR R/B 1.2 18:39:55 10° SSW 18:43:43 67° ESE 18:45:39 30° NE
COSMO-SKYMED 1 4.1 18:41:26 10° N 18:45:28 38° WNW 18:49:29 10° SW
NOSS 3-1 (C) 4.1 18:44:30 10° S 18:47:41 25° SE 18:47:41 25° SE
Feng Yun 1-1 Rocket 4.5 18:46:02 10° S 18:51:29 71° WSW 18:57:08 10° NNW
Cosmos 2369 4.4 18:46:00 10° SW 18:51:33 55° WNW 18:57:08 10° NNE
HJ-1C 3.2 18:51:07 39° SSE 18:52:13 89° W 18:55:29 10° NNW
SL-8 R/B 3.9 18:48:10 10° SW 18:52:47 50° SE 18:53:45 43° ESE
Cosmos 2227 4.4 18:47:33 10° NNW 18:53:09 49° ENE 18:55:04 36° ESE
IRS-1C Rocket 4.0 18:50:29 10° SSE 18:55:43 77° ENE 19:01:00 10° N
Cosmos 1605 Rocket 4.1 18:50:33 10° SSE 18:56:29 50° E 19:02:32 10° NNE
H-2A R/B 3.3 18:52:14 10° S 18:56:35 55° W 19:00:49 10° NNW
SL-08 RB Rocket 4.2 18:55:05 10° S 18:59:31 59° W 19:04:03 10° NNW
Cosmos 1892 Rocket 4.3 18:55:17 10° NNW 18:59:40 55° W 19:03:59 10° S
Cosmos 1535 Rocket 4.4 18:55:01 10° S 19:01:12 75° E 19:07:31 10° N
Cosmos 1980 Rocket 2.9 19:00:09 10° SW 19:05:41 55° WNW 19:11:18 10° NNE
X-37B 1.5 19:05:40 10° W 19:08:08 49° WNW 19:08:08 49° WNW
Cosmos 489 Rocket 4.4 19:03:13 10° NNW 19:09:27 88° ENE 19:13:45 21° SSE
Cosmos 2263 Rocket 2.0 19:05:01 10° NNW 19:10:36 83° ENE 19:12:46 39° SSE
CSL-04 Debris 4.0 19:08:41 30° SSE 19:11:25 76° ENE 19:16:50 10° N
Cosmos 1269 Rocket 3.9 19:07:14 10° NNW 19:12:34 86° ENE 19:14:31 41° SSE
CZ-2C R/B 3.4 19:15:04 10° SW 19:15:35 12° SSW 19:15:35 12° SSW
Cosmos 724 4.1 19:19:52 10° NNW 19:25:52 85° ENE 19:26:54 62° SE
Cosmos 1626 Rocket 3.9 19:24:42 10° N 19:28:11 56° NNW 19:28:11 56° NNW
Cosmos 371 Rocket 3.4 19:24:46 10° SSW 19:28:54 65° SSW 19:28:54 65° SSW
CSL-04 Rocket 3.7 19:30:11 41° S 19:32:11 80° WSW 19:37:46 10° NNW
MetOp-A 4.4 19:31:02 27° S 19:33:58 66° WSW 19:39:18 10° NNW
Gbstr 26 Del rocket 4.4 19:34:52 10° WNW 19:42:25 89° NNE 19:43:59 63° ESE
CZ-4 R/B 3.9 19:39:51 10° SW 19:42:47 20° W 19:45:47 10° NW
Okean-O 3.9 19:45:17 31° SW 19:46:33 37° W 19:50:42 10° NNW
Cosmos 1844 Rocket 4.1 19:41:25 10° N 19:44:20 26° NNE 19:44:20 26° NNE
SL-16 R/B 2.8 19:46:49 10° SSW 19:50:51 48° SSW 19:50:51 48° SSW
H-2A R/B 4.3 19:53:16 10° NNW 19:56:27 22° WNW 19:59:38 10° WSW
Cosmos 2322 Rocket 4.5 20:04:53 10° SSW 20:05:21 12° SSW 20:05:21 12° SSW
Cosmos 2344 4.2 20:04:33 10° NW 20:13:53 80° NE 20:15:56 65° ESE
Lacrosse 4 Rocket 4.2 20:11:50 10° NNW 20:12:21 13° NNW 20:12:21 13° NNW
ATLAS 5 CENTAUR R/B 4.3 20:26:03 10° WNW 20:27:13 14° WNW 20:27:13 14° WNW
